Погода в Бельск-Подляски

Польша     52°45′54″N   23°11′12″E
темп.,
°C
ветер,
м/с
пор.,
м/с
влажн.,
%
обл.,
%
осадки,
мм/ч
давл.,
гПа
погр.,
м
2 марта, вт
вт201:00+1з6129533 0.0 1031351
04:00+1з7119463 0.0 1029412
07:00+1зсз7109381 0.0 1029424
10:00+4зсз7107874 0.0 1029529
13:00+8зсз7106437 0.0 1028666
16:00+7сз510670 0.0 1028651
19:00+4сз410870 0.0 1030294
22:00+2сз36954 0.0 1031154
3 марта, ср
ср301:000ссз23945 0.0 103258
04:00−1сз23930 0.0 103141
07:000сз228538 0.0 103189
10:00+5з225333 0.0 1029361
13:00+8зюз344423 0.0 1028648
16:00+7юз36600 0.0 1024279
19:00+3юз47850 0.0 1022118
22:00+2юз49840 0.0 1019154
4 марта, чт
чт401:00+2юз410860 0.0 1017198
04:00+2зюз5119166 0.0 1013282
07:00+3зюз6129466 0.1 1011379
10:00+4з71088100 0.0 1010827
13:00+4зсз71081100 0.1 1010923
16:00+3зсз61085100 0.1 1009761
19:00+1сз51087100 0.5 1011607
22:000ссз488899 0.0 1012513
5 марта, пт
пт501:00−1с4777100 0.0 1013442
04:00−2ссз4875100 0.0 1014403
07:00−2ссз477567 0.0 1016385
10:00+1ссз45532 0.0 10161047
13:00+3сз57421 0.0 10171767
16:00+2ссз684354 0.3 10181748
19:00−2сз375727 0.3 1021175
22:00−2сз365719 0.0 1022174
6 марта, сб
сб601:00−2сз485830 0.0 1023604
04:00−3ссз487381 0.0 1024687
07:00−4ссз486140 0.0 1026740
10:00−1сз584987 0.0 10271395
13:00+1зсз684293 0.0 10271837
16:00+1з6946100 0.0 10251569
19:00−2зюз5126151 0.0 1024389
22:00−1зюз7155742 0.0 1022756